Simultaneous Nadir Overpasses (SNOs) Predictions

Prediction of SNOs between GOES-15 and NPP Satellite Orbit:

Table of predicted SNOs for the next 14.0 days since TLE Epoch: 7/10/2015
Index Date Time (GOES-15) GOES-15 Lat,Lon NPP Lat,Lon Distance(km) Time Diff (sec)
1 07/11/2015 10:25:17 -0.14,-135.03 -0.45,-133.75 146.36 80
2 07/12/2015 22:44:33 0.16,-135.05 -0.75,-139.05 455.97 80
3 07/13/2015 22:28:27 0.15,-135.07 0.26,-134.52 62.15 80
4 07/16/2015 10:28:49 -0.16,-135.10 -0.13,-135.26 19.02 80
5 07/17/2015 10:12:44 -0.16,-135.11 -1.14,-130.73 499.00 80
6 07/18/2015 22:31:59 0.18,-135.13 -0.05,-136.04 103.82 80
7 07/19/2015 22:15:53 0.17,-135.14 0.96,-131.51 413.89 80
8 07/21/2015 10:35:01 -0.19,-135.15 0.18,-136.78 186.33 80
9 07/22/2015 10:18:55
